Tracking 30703 objects as of 13-Jun-2025
HD Live streaming from Space Station
objects crossing your sky now

THORAD AGENA D DEB

Track THORAD AGENA D DEB now!
10-day predictions


NORAD ID: 42497
Int'l Code: 1970-025RB
Perigee: 884.7 km
Apogee: 930.0 km
Inclination: 100.0 °
Period: 103.0 minutes
Semi major axis: 7278 km
RCS: Unknown
Launch date: April 8, 1970
Source: United States (US)
Launch site: AIR FORCE WESTERN TEST RANGE (AFWTR)

Note: This is SATELLITE DEBRIS
Your satellite tracking list
Your tracking list is empty




NASA's NSSDC Master Catalog

Two Line Element Set (TLE):
1 42497U 70025RB  25145.31228224  .00001736  00000-0  12506-2 0  9994
2 42497 100.0268 345.8711 0031149 104.7688 255.6927 13.98155119583843
Source of the keplerian elements: AFSPC